Weather in Kermanshah

Iran     34°19′26″N   47°04′24″E
temp.,
°C
wind,
m/s
gust,
m/s
humid.,
%
clouds,
%
prec.,
mm/h
press.,
hPa
HPBL,
m
13 june, sun
sun1301:30+16nw33280 0.0 101122
04:30+14nw22310 0.0 101211
07:30+15nw24280 0.0 1013106
10:30+24nw68150 0.0 1011723
13:30+31nw101070 0.0 10082002
16:30+30wnw111180 0.0 10072173
19:30+26wnw810100 0.0 10081094
22:30+18wnw34180 0.0 101133
14 june, mon
mon1401:30+15nw34260 0.0 101237
04:30+13nw23320 0.0 101215
07:30+15nnw11280 0.0 101236
10:30+23nnw23130 0.0 1010714
13:30+31nw3460 0.0 10071616
16:30+35nw4440 0.0 10042647
19:30+30nw61080 0.0 1005479
22:30+22wnw33130 0.0 100814
15 june, tue
tue1501:30+18wnw22190 0.0 100811
04:30+17nnw01210 0.0 100811
07:30+20n11180 0.0 100911
10:30+28nnw12100 0.0 1007576
13:30+35wnw4460 0.0 10042423
16:30+36wsw2350 0.0 10023567
19:30+33wnw71070 0.0 1002607
22:30+24wnw33170 0.0 100616
16 june, wed
wed1601:30+21nw33210 0.0 100621
04:30+19wnw22240 0.0 100611
07:30+21wnw00240 0.0 100713
10:30+29nw22110 0.0 1005623
13:30+35wsw2570 0.0 10022723
16:30+38ssw5540 0.0 10003778
19:30+32wnw79120 0.0 1003802
22:30+24wnw33200 0.0 100624
17 june, thu
thu1701:30+20wnw22230 0.0 100711
04:30+19wnw22240 0.0 100711
07:30+20wnw22230 0.0 100849
10:30+29nw33140 0.0 1005494
13:30+35wnw2480 0.0 10022273
16:30+38wsw4450 0.0 10013492
19:30+32nw81090 0.0 1003812
22:30+23nw45130 0.0 100659